Location: Antioch Baptist Church
(32.6696°N, 85.7327°W)
Time: 12:26:02
(UTC+00:00)

Meteor 2-17 Rocket - Pass Details

Date: 14 July 2020
Orbit: 935 x 956 km, 82.5° (Epoch: 08 August)

Event Time Altitude Azimuth Distance (km) Brightness Sun altitude
Exits shadow 03:02:52 34° 185° (S) 1,500 5.1 -22.8°
Maximum altitude 03:05:43 90° 282° (WNW) 941 4.3 -23.2°
Drops below altitude 10° 03:11:47 10° 6° (N) 2,650 7.3 -24.0°
Sets 03:14:16 0° 7° (N) 3,597 8.1 -24.4°
